Regional Weather Roundup
Issued by NWS

Home | Current Version | Previous Version | Graphics & Text | Print | Product List | Glossary Off
Versions: 1 2 3 4 5 6 7 8 9 10 11 12 13 14 15 16 17 18 19 20 21 22 23 24 25 26 27 28 29 30 31 32 33 34 35 36 37 38 39 40 41 42 43 44 45 46 47 48 49 50

121
ASUS43 KDMX 261808
RWRIA

WEATHER ROUNDUP FOR IOWA
NATIONAL WEATHER SERVICE DES MOINES IA
100 PM CDT MON SEP 26 2016

NOTE: "FAIR" INDICATES FEW OR NO CLOUDS BELOW 12,000 FEET WITH NO
SIGNIFICANT WEATHER AND/OR OBSTRUCTIONS TO VISIBILITY.

* - THESE STATIONS ARE NOT NWS STATIONS...THUS NOT UNDER NWS
QUALITY CONTROL.  THEY ALSO DO NOT REPORT WEATHER SUCH
AS PRECIPITATION OR FOG.

IAZ001>003-012>014-020>022-031>034-043>046-261900-
   NORTHWEST IOWA

CITY           SKY/WX    TMP DP  RH WIND       PRES   REMARKS
CARROLL *      SUNNY     70  39  32 NW16G23   30.14F
CHEROKEE *     SUNNY     67  39  35 W17G24    30.13F
DENISON *      SUNNY     70  39  32 W16G23    30.15F
LE MARS *      SUNNY     68  41  37 W16G25    30.15F
ORANGE CITY *  SUNNY     66  41  39 NW20G28   30.13F
SHELDON *      SUNNY     66  37  34 W20G30    30.10F
SIOUX CITY     SUNNY     72  43  35 NW17G26   30.14F
6HR MIN TEMP:  45; 6HR MAX TEMP:  72;

SPENCER        SUNNY     67  38  34 W22G33    30.10F
6HR MIN TEMP:  44; 6HR MAX TEMP:  67;

STORM LAKE *   SUNNY     68  37  32 NW21G30   30.13F
$$

IAZ055>058-069>071-079>083-090>094-261900-
   SOUTHWEST IOWA

CITY           SKY/WX    TMP DP  RH WIND       PRES   REMARKS
ATLANTIC *     SUNNY     70  39  32 NW20G26   30.17F
AUDUBON *      SUNNY     70  37  30 W13G23    30.17F
CLARINDA *       N/A     72  39  30 MISG      30.21F
COUNCIL BLFS * SUNNY     72  41  33 W13G24    30.19F
CRESTON *      SUNNY     68  39  34 NW23      30.19F
HARLAN  *      SUNNY     70  43  37 W20G25    30.20F
LAMONI         SUNNY     71  41  33 NW14G23   30.19F
6HR MIN TEMP:  46; 6HR MAX TEMP:  71;

RED OAK *      SUNNY     72  41  33 NW14G23   30.19F
SHENANDOAH *   SUNNY     72  41  33 W13G21    30.21F
$$

IAZ047>049-059>061-072>074-084-261900-
   CENTRAL IOWA

CITY           SKY/WX    TMP DP  RH WIND       PRES   REMARKS
AMES           SUNNY     68  40  35 W18G29    30.11F
6HR MIN TEMP:  48; 6HR MAX TEMP:  68;

ANKENY *         N/A    N/A N/A N/A MISG        N/A
BOONE *        SUNNY     66  37  34 W20G31    30.11F
CHARITON *       N/A     70  37  30 NW17G28   30.15F
DES MOINES     MOSUNNY   71  38  29 NW21G33   30.12F
6HR MIN TEMP:  50; 6HR MAX TEMP:  71;

GRINNELL*      SUNNY     68  37  31 W20G28    30.11F
KNOXVILLE *    SUNNY     70  36  28 W23G30    30.12F
MARSHALLTOWN   SUNNY     66  37  34 W20G32    30.09F
6HR MIN TEMP:  48; 6HR MAX TEMP:  66;

NEWTON *       SUNNY     68  36  30 W16G31    30.11F
PELLA *        SUNNY     69  37  30 W18G24    30.13F
PERRY *          N/A     70  36  28 W20G31    30.14F
$$

IAZ004>006-015-016-023>025-035-036-261900-
   NORTH CENTRAL IOWA

CITY           SKY/WX    TMP DP  RH WIND       PRES   REMARKS
ALGONA *       SUNNY     66  34  30 NW23G32   30.08F
CLARION *      SUNNY     66  34  30 W21G32    30.08F
ESTHERVILLE    SUNNY     65  32  29 W26G33    30.07F
6HR MIN TEMP:  46; 6HR MAX TEMP:  65;

FORT DODGE *   SUNNY     66  43  42 W16G25    30.11F
MASON CITY     SUNNY     65  33  30 NW24      30.06F
6HR MIN TEMP:  47; 6HR MAX TEMP:  65;

FOREST CITY *    N/A     64  32  29 W17G28    30.05F
WEBSTER CITY * SUNNY     68  37  32 W21G33    30.08F
IOWA FALLS *     N/A     67  32  27 W22G32    30.10S
$$

IAZ007>011-017>019-026>030-037>042-050>054-066-261900-
   NORTHEAST IOWA

CITY           SKY/WX    TMP DP  RH WIND       PRES   REMARKS
CEDAR RAPIDS   SUNNY     66  38  35 W30G36    30.06F
6HR MIN TEMP:  49; 6HR MAX TEMP:  67;

CHARLES CITY * SUNNY     66  28  24 W20G38    30.03F
CLINTON *      SUNNY     69  35  28 NW21G29   30.03F
DECORAH *      SUNNY     64  32  29 W17G31    29.96F
DUBUQUE        SUNNY     65  35  33 W24G36    30.02S
6HR MIN TEMP:  48; 6HR MAX TEMP:  65;

MONTICELLO *   SUNNY     68  34  28 W16G28    30.03S
OELWEIN *      SUNNY     64  34  32 NW17G38   30.03F
WATERLOO       SUNNY     67  35  30 W18G25    30.04F
6HR MIN TEMP:  49; 6HR MAX TEMP:  67;

$$

IAZ064-065-067-068-078-261900-
   EAST CENTRAL IOWA

CITY           SKY/WX    TMP DP  RH WIND       PRES   REMARKS
DAVENPORT      SUNNY     69  30  23 W20G30    30.05F
6HR MIN TEMP:  51; 6HR MAX TEMP:  69;

IOWA CITY      SUNNY     69  36  29 W17G25    30.09F
6HR MIN TEMP:  49; 6HR MAX TEMP:  69;

MT. PLEASANT * SUNNY     72  33  24 W17G26    30.11F
MUSCATINE *    SUNNY     72  34  25 W18G25    30.08F
QUAD CITIES    SUNNY     69  34  27 W18G33    30.05F
6HR MIN TEMP:  52; 6HR MAX TEMP:  70;

$$

IAZ062-063-075>077-085>089-095>099-261900-
   SOUTHEAST IOWA

CITY           SKY/WX    TMP DP  RH WIND       PRES   REMARKS
BURLINGTON     SUNNY     70  34  26 W13G25    30.11F
6HR MIN TEMP:  49; 6HR MAX TEMP:  70;

FAIRFIELD *    SUNNY     70  32  24 NW16G29   30.11F
FORT MADISON * SUNNY     72  36  26 NW15G22   30.12F
KEOKUK *       SUNNY     72  34  25 W15       30.12F
OSKALOOSA *      N/A     70  35  27 W24       30.13F
OTTUMWA        LGT RAIN  69  33  26 NW22G31   30.13F
6HR MIN TEMP:  47; 6HR MAX TEMP:  69; 6HR PCP: TRACE;

WASHINGTON *     N/A    N/A N/A N/A MISG        N/A
$$

ABBREVIATIONS USED IN REMARKS
   TC - TEMPERATURES IN CELSIUS
  WCI - WIND CHILL INDEX
   HX - HEAT INDEX
  VSB - VISIBILITY
$$





USA.gov is the U.S. government's official web portal to all federal, state and local government web resources and services.